Weather History for KDLS - August, 2013

Change the Weather History Date:

Friday, August 2, 2013

  Actual Average Record
Temperature  
Mean Temperature 68 °F -  
Max Temperature 78 °F 89 °F 102 °F (1952)
Min Temperature 62 °F 61 °F 50 °F (1960)
Cooling Degree Days 4    
Growing Degree Days 18 (Base 50)    
Moisture  
Dew Point 51 °F    
Average Humidity 53    
Maximum Humidity 65    
Minimum Humidity 40    
Precipitation  
Precipitation 0.00 in - - ()
Sea Level Pressure  
Sea Level Pressure 30.03 in    
Wind  
Wind Speed 15 mph (NW)    
Max Wind Speed 22 mph    
Max Gust Speed 29 mph    
Visibility 10 miles    
Events      
Averages and records for this station are not official NWS values.
T = Trace of Precipitation, MM = Missing Value Source: NWS Daily Summary

Daily Weather History Graph

Daily Weather History Graph

Search for Another Location

Airport or City:

Trip Planner

Search our weather history database for the weather conditions in past years. The results will help you decide how hot, cold, wet, or windy it might be!

Date:

Astronomy

Aug. 02, 2013 Rise Set
Actual Time 5:49 AM PDT 8:31 PM PDT
Civil Twilight 5:15 AM PDT 9:05 PM PDT
Nautical Twilight 4:32 AM PDT 9:47 PM PDT
Astronomical Twilight 3:42 AM PDT 10:37 PM PDT
Moon 2:12 AM PDT (8/2) 5:35 PM PDT (8/2)
Length of Visible Light 15h 49m
Length of Day
14h 41m
Waning Crescent, 15% of the Moon is Illuminated
Aug 2
Waning Crescent
Aug 6
New
Aug 14
First Quarter
Aug 20
Full
Aug 28
Last Quarter

Hourly Weather History & Observations

Time (PDT) Temp. Dew Point Humidity Pressure Visibility Wind Dir Wind Speed Gust Speed Precip Events Conditions
12:53 AM 64.0 °F 52.0 °F 65% 30.03 in 10.0 mi WNW 12.7 mph 26.5 mph N/A   Clear
1:53 AM 64.0 °F 51.1 °F 63% 30.03 in 10.0 mi WNW 19.6 mph 25.3 mph N/A   Clear
2:53 AM 64.0 °F 50.0 °F 60% 30.02 in 10.0 mi West 15.0 mph 28.8 mph N/A   Clear
3:53 AM 63.0 °F 50.0 °F 63% 30.02 in 10.0 mi NW 13.8 mph 23.0 mph N/A   Clear
4:53 AM 63.0 °F 48.9 °F 60% 30.02 in 10.0 mi WNW 19.6 mph 27.6 mph N/A   Clear
5:53 AM 62.1 °F 48.9 °F 62% 30.03 in 10.0 mi WNW 12.7 mph 18.4 mph N/A   Clear
6:53 AM 63.0 °F 48.9 °F 60% 30.05 in 10.0 mi WNW 12.7 mph - N/A   Clear
7:53 AM 66.0 °F 50.0 °F 56% 30.06 in 10.0 mi WNW 11.5 mph - N/A   Clear
8:53 AM 68.0 °F 50.0 °F 52% 30.07 in 10.0 mi WNW 17.3 mph 23.0 mph N/A   Clear
9:53 AM 71.1 °F 50.0 °F 47% 30.06 in 10.0 mi WNW 19.6 mph 27.6 mph N/A   Clear
10:53 AM 73.0 °F 48.9 °F 42% 30.04 in 10.0 mi WNW 20.7 mph 27.6 mph N/A   Clear
11:53 AM 75.9 °F 50.0 °F 40% 30.03 in 10.0 mi WNW 19.6 mph 28.8 mph N/A   Clear
12:53 PM 75.0 °F 51.1 °F 43% 30.03 in 10.0 mi NW 16.1 mph 26.5 mph N/A   Clear
1:53 PM 73.0 °F 51.1 °F 46% 30.03 in 10.0 mi NW 15.0 mph 27.6 mph N/A   Clear
2:53 PM 72.0 °F 51.1 °F 48% 30.03 in 10.0 mi NW 18.4 mph 27.6 mph N/A   Clear
3:53 PM 72.0 °F 52.0 °F 49% 30.01 in 10.0 mi NNW 21.9 mph 28.8 mph N/A   Clear
4:53 PM 73.9 °F 52.0 °F 46% 30.00 in 10.0 mi NW 19.6 mph 26.5 mph N/A   Clear
5:53 PM 71.1 °F 52.0 °F 51% 30.00 in 10.0 mi NW 17.3 mph 25.3 mph N/A   Clear
6:53 PM 71.1 °F 52.0 °F 51% 30.00 in 10.0 mi NW 15.0 mph 23.0 mph N/A   Clear
7:53 PM 71.1 °F 51.1 °F 49% 30.01 in 10.0 mi NW 20.7 mph 26.5 mph N/A   Clear
8:53 PM 69.1 °F 52.0 °F 54% 30.02 in 10.0 mi WNW 10.4 mph 19.6 mph N/A   Clear
9:53 PM 68.0 °F 51.1 °F 55% 30.04 in 10.0 mi WNW 5.8 mph 16.1 mph N/A   Clear
10:53 PM 66.9 °F 51.1 °F 57% 30.04 in 10.0 mi NNW 8.1 mph - N/A   Clear
11:53 PM 66.0 °F 52.0 °F 60% 30.04 in 10.0 mi NW 11.5 mph - N/A   Clear